TKY78M BIAR-ENSB

Flight info

Callsign TKY78M
Flight time 2h 22m
Altitude 41000
Route UTISU2A UTISU DCT 70N012W 75N000E/N0455F410 DCT INPAR
Aircraft B736/M-SDE2E3FGHIRWXY/LB1

Departure

Time 2026-05-09 17:36
Airport Akureyri International Airport (BIAR)

Arrival

Time 2026-05-09 19:59
Airport Svalbard Airport, Longyear (ENSB)
Time Latitude Longitude Altitude Speed Heading
2026-05-09 17:09 65.65390 -18.07350 20 ft 0 kts 86°
2026-05-09 17:10 65.65454 -18.07490 20 ft 0 kts 355°
2026-05-09 17:32 65.65463 -18.07475 22 ft 2 kts 51°
2026-05-09 17:33 65.65469 -18.07392 20 ft 8 kts 83°
2026-05-09 17:33 65.65471 -18.07222 20 ft 0 kts 111°
2026-05-09 17:33 65.65457 -18.07167 20 ft 8 kts 132°
2026-05-09 17:33 65.65400 -18.07128 20 ft 11 kts 179°
2026-05-09 17:34 65.65306 -18.07138 22 ft 16 kts 178°
2026-05-09 17:35 65.64494 -18.07008 23 ft 4 kts
2026-05-09 17:35 65.64544 -18.06994 21 ft 14 kts 355°
2026-05-09 17:36 65.64878 -18.07056 21 ft 84 kts 355°
2026-05-09 17:36 65.65665 -18.07199 87 ft 134 kts 354°
2026-05-09 17:36 65.66617 -18.07373 684 ft 138 kts 354°
2026-05-09 17:36 65.67599 -18.07576 1275 ft 144 kts 354°
2026-05-09 17:37 65.68565 -18.07852 2181 ft 143 kts 353°
2026-05-09 17:37 65.69665 -18.08179 2585 ft 178 kts 353°
2026-05-09 17:37 65.71004 -18.08548 2896 ft 209 kts 354°
2026-05-09 17:37 65.72545 -18.08966 3128 ft 238 kts 353°
2026-05-09 17:38 65.74257 -18.09425 3758 ft 253 kts 353°
2026-05-09 17:38 65.76025 -18.09895 4720 ft 257 kts 352°
2026-05-09 17:38 65.77819 -18.10370 5697 ft 261 kts 351°
2026-05-09 17:39 65.81409 -18.11201 7831 ft 264 kts 358°
2026-05-09 17:39 65.83212 -18.10059 8933 ft 275 kts 22°
2026-05-09 17:39 65.84736 -18.07136 10088 ft 287 kts 46°
2026-05-09 17:39 65.85728 -18.02753 10956 ft 311 kts 68°
2026-05-09 17:40 65.86130 -17.97267 11364 ft 342 kts 80°
2026-05-09 17:40 65.86338 -17.91375 12185 ft 353 kts 82°
2026-05-09 17:40 65.86509 -17.85335 13173 ft 360 kts 82°
2026-05-09 17:40 65.86688 -17.79197 14211 ft 365 kts 81°
2026-05-09 17:41 65.86882 -17.73040 15121 ft 371 kts 81°
2026-05-09 17:41 65.87094 -17.66706 16038 ft 377 kts 80°
2026-05-09 17:41 65.87317 -17.60275 16956 ft 383 kts 79°
2026-05-09 17:41 65.87544 -17.53736 17884 ft 390 kts 79°
2026-05-09 17:42 65.87773 -17.47074 18785 ft 396 kts 79°
2026-05-09 17:42 65.88312 -17.40539 19568 ft 389 kts 60°
2026-05-09 17:42 65.89663 -17.34994 20458 ft 373 kts 41°
2026-05-09 17:42 65.91534 -17.30787 21379 ft 360 kts 24°
2026-05-09 17:43 65.93714 -17.27959 22305 ft 353 kts 16°
2026-05-09 17:43 65.95934 -17.25544 23201 ft 355 kts 14°
2026-05-09 17:43 65.98217 -17.23165 24051 ft 358 kts 13°
2026-05-09 17:43 66.00526 -17.20774 24808 ft 361 kts 13°
2026-05-09 17:44 66.02846 -17.18352 25565 ft 364 kts 13°
2026-05-09 17:44 66.05180 -17.15888 26320 ft 366 kts 13°
2026-05-09 17:44 66.07531 -17.13383 27063 ft 370 kts 13°
2026-05-09 17:44 66.09896 -17.10844 27775 ft 373 kts 13°
2026-05-09 17:45 66.12284 -17.08265 28481 ft 376 kts 13°
2026-05-09 17:45 66.14655 -17.05693 29163 ft 379 kts 13°
2026-05-09 17:45 66.17077 -17.03057 29808 ft 382 kts 13°
2026-05-09 17:45 66.19521 -17.00388 30447 ft 385 kts 13°
2026-05-09 17:46 66.21982 -16.97694 30940 ft 388 kts 12°
2026-05-09 17:46 66.24465 -16.94970 31409 ft 392 kts 12°
2026-05-09 17:46 66.26965 -16.92220 31844 ft 395 kts 13°
2026-05-09 17:46 66.29493 -16.89435 32263 ft 399 kts 13°
2026-05-09 17:47 66.32037 -16.86623 32709 ft 401 kts 13°
2026-05-09 17:47 66.34578 -16.83800 33299 ft 399 kts 13°
2026-05-09 17:47 66.37070 -16.81022 33909 ft 397 kts 13°
2026-05-09 17:47 66.39589 -16.78211 34409 ft 397 kts 13°
2026-05-09 17:48 66.42113 -16.75397 34750 ft 399 kts 13°
2026-05-09 17:48 66.44659 -16.72558 35037 ft 402 kts 13°
2026-05-09 17:48 66.47222 -16.69695 35358 ft 404 kts 14°
2026-05-09 17:48 66.49791 -16.66813 35716 ft 405 kts 14°
2026-05-09 17:49 66.52371 -16.63912 36045 ft 407 kts 14°
2026-05-09 17:49 66.54965 -16.60989 36337 ft 410 kts 14°
2026-05-09 17:49 66.57535 -16.58085 36660 ft 411 kts 15°
2026-05-09 17:49 66.60149 -16.55124 36992 ft 413 kts 15°
2026-05-09 17:50 66.62769 -16.52148 37295 ft 415 kts 15°
2026-05-09 17:50 66.68046 -16.46135 37924 ft 418 kts 16°
2026-05-09 17:50 66.70699 -16.43102 38228 ft 419 kts 17°
2026-05-09 17:51 66.73356 -16.40056 38526 ft 421 kts 17°
2026-05-09 17:51 66.76028 -16.36986 38837 ft 422 kts 17°
2026-05-09 17:51 66.78703 -16.33905 39106 ft 423 kts 17°
2026-05-09 17:51 66.81345 -16.30855 39359 ft 424 kts 17°
2026-05-09 17:52 66.84028 -16.27750 39621 ft 424 kts 18°
2026-05-09 17:52 66.86712 -16.24636 39864 ft 425 kts 18°
2026-05-09 17:52 66.89401 -16.21509 40104 ft 425 kts 18°
2026-05-09 17:52 66.92094 -16.18370 40356 ft 426 kts 18°
2026-05-09 17:53 66.94788 -16.15223 40604 ft 426 kts 18°
2026-05-09 17:53 66.97484 -16.12066 40838 ft 427 kts 18°
2026-05-09 17:53 67.00184 -16.08895 41076 ft 427 kts 18°
2026-05-09 17:53 67.02851 -16.05757 41276 ft 429 kts 18°
2026-05-09 17:54 67.08312 -15.99313 41279 ft 433 kts 19°
2026-05-09 17:54 67.13765 -15.92832 41270 ft 429 kts 19°
2026-05-09 17:55 67.19152 -15.86396 41280 ft 426 kts 19°
2026-05-09 17:55 67.24483 -15.80006 41274 ft 425 kts 19°
2026-05-09 17:56 67.29838 -15.73558 41271 ft 425 kts 19°
2026-05-09 17:57 67.37873 -15.63821 41275 ft 426 kts 19°
2026-05-09 17:57 67.43242 -15.57272 41277 ft 427 kts 19°
2026-05-09 17:58 67.48590 -15.50717 41266 ft 428 kts 19°
2026-05-09 17:58 67.53993 -15.44061 41264 ft 430 kts 19°
2026-05-09 17:59 67.59412 -15.37349 41257 ft 431 kts 19°
2026-05-09 17:59 67.64843 -15.30588 41257 ft 433 kts 20°
2026-05-09 18:00 67.70286 -15.23778 41252 ft 434 kts 20°
2026-05-09 18:00 67.75699 -15.16969 41248 ft 434 kts 20°
2026-05-09 18:01 67.81157 -15.10068 41241 ft 435 kts 20°
2026-05-09 18:01 67.86618 -15.03126 41240 ft 435 kts 20°
2026-05-09 18:02 67.92074 -14.96156 41237 ft 435 kts 20°
2026-05-09 18:02 67.97488 -14.89204 41233 ft 435 kts 20°
2026-05-09 18:03 68.02934 -14.82174 41230 ft 435 kts 20°
2026-05-09 18:03 68.08377 -14.75111 41232 ft 434 kts 20°
2026-05-09 18:04 68.13811 -14.68023 41224 ft 434 kts 20°
2026-05-09 18:04 68.19207 -14.60948 41226 ft 434 kts 21°
2026-05-09 18:05 68.24636 -14.53790 41222 ft 434 kts 21°
2026-05-09 18:05 68.30061 -14.46599 41223 ft 435 kts 21°
2026-05-09 18:06 68.35488 -14.39369 41224 ft 435 kts 21°
2026-05-09 18:06 68.40910 -14.32106 41223 ft 435 kts 21°
2026-05-09 18:07 68.46299 -14.24848 41218 ft 435 kts 21°
2026-05-09 18:07 68.51724 -14.17502 41227 ft 435 kts 21°
2026-05-09 18:08 68.57149 -14.10117 41227 ft 436 kts 21°
2026-05-09 18:08 68.62576 -14.02689 41227 ft 436 kts 21°
2026-05-09 18:09 68.68004 -13.95218 41228 ft 437 kts 22°
2026-05-09 18:09 68.73397 -13.87756 41230 ft 437 kts 22°
2026-05-09 18:10 68.78824 -13.80204 41226 ft 437 kts 22°
2026-05-09 18:10 68.84254 -13.72608 41223 ft 437 kts 22°
2026-05-09 18:11 68.89685 -13.64967 41224 ft 438 kts 22°
2026-05-09 18:11 68.95077 -13.57340 41224 ft 438 kts 22°
2026-05-09 18:12 69.00506 -13.49617 41221 ft 438 kts 22°
2026-05-09 18:12 69.05932 -13.41856 41223 ft 438 kts 22°
2026-05-09 18:13 69.11359 -13.34050 41220 ft 439 kts 22°
2026-05-09 18:13 69.16745 -13.26259 41222 ft 439 kts 22°
2026-05-09 18:14 69.22170 -13.18366 41218 ft 439 kts 23°
2026-05-09 18:14 69.27594 -13.10431 41216 ft 439 kts 23°
2026-05-09 18:15 69.33020 -13.02448 41212 ft 440 kts 23°
2026-05-09 18:15 69.38407 -12.94479 41215 ft 440 kts 23°
2026-05-09 18:16 69.43831 -12.86406 41211 ft 440 kts 23°
2026-05-09 18:16 69.49255 -12.78288 41211 ft 441 kts 24°
2026-05-09 18:17 69.54685 -12.70115 41208 ft 441 kts 24°
2026-05-09 18:17 69.60111 -12.61899 41206 ft 441 kts 24°
2026-05-09 18:18 69.65501 -12.53691 41205 ft 442 kts 24°
2026-05-09 18:18 69.70932 -12.45372 41200 ft 442 kts 24°
2026-05-09 18:19 69.76364 -12.37003 41200 ft 443 kts 24°
2026-05-09 18:19 69.84471 -12.24418 41193 ft 443 kts 24°
2026-05-09 18:20 69.89904 -12.15924 41191 ft 443 kts 25°
2026-05-09 18:20 69.95335 -12.07384 41184 ft 444 kts 25°
2026-05-09 18:21 70.00764 -11.98780 41185 ft 444 kts 25°
2026-05-09 18:21 70.06090 -11.89808 41182 ft 445 kts 27°
2026-05-09 18:22 70.11420 -11.80547 41178 ft 445 kts 27°
2026-05-09 18:22 70.16753 -11.71255 41173 ft 446 kts 27°
2026-05-09 18:23 70.22091 -11.61947 41173 ft 446 kts 27°
2026-05-09 18:23 70.27395 -11.52665 41170 ft 446 kts 27°
2026-05-09 18:24 70.32732 -11.43270 41168 ft 446 kts 27°
2026-05-09 18:25 70.40726 -11.29091 41160 ft 447 kts 27°
2026-05-09 18:25 70.46056 -11.19562 41160 ft 447 kts 27°
2026-05-09 18:26 70.51346 -11.10048 41154 ft 447 kts 27°
2026-05-09 18:26 70.56666 -11.00419 41148 ft 447 kts 28°
2026-05-09 18:27 70.61984 -10.90733 41148 ft 447 kts 28°
2026-05-09 18:27 70.67293 -10.81000 41142 ft 447 kts 28°
2026-05-09 18:28 70.72602 -10.71212 41136 ft 447 kts 28°
2026-05-09 18:28 70.77865 -10.61445 41132 ft 447 kts 28°
2026-05-09 18:29 70.83159 -10.51564 41129 ft 447 kts 28°
2026-05-09 18:29 70.88450 -10.41620 41119 ft 447 kts 28°
2026-05-09 18:30 70.93730 -10.31630 41116 ft 447 kts 28°
2026-05-09 18:30 70.98974 -10.21651 41110 ft 447 kts 28°
2026-05-09 18:31 71.04246 -10.11553 41114 ft 447 kts 29°
2026-05-09 18:31 71.09514 -10.01389 41097 ft 447 kts 29°
2026-05-09 18:32 71.14779 -9.91175 41095 ft 447 kts 29°
2026-05-09 18:32 71.20038 -9.80913 41086 ft 447 kts 29°
2026-05-09 18:33 71.25261 -9.70657 41077 ft 447 kts 29°
2026-05-09 18:33 71.30508 -9.60276 41073 ft 447 kts 29°
2026-05-09 18:34 71.35756 -9.49825 41072 ft 447 kts 29°
2026-05-09 18:34 71.41001 -9.39319 41064 ft 448 kts 30°
2026-05-09 18:35 71.46208 -9.28815 41059 ft 448 kts 30°
2026-05-09 18:35 71.51447 -9.18175 41050 ft 448 kts 30°
2026-05-09 18:36 71.56679 -9.07479 41047 ft 448 kts 30°
2026-05-09 18:36 71.61913 -8.96712 41033 ft 449 kts 30°
2026-05-09 18:37 71.67102 -8.85964 41038 ft 449 kts 30°
2026-05-09 18:37 71.72331 -8.75064 41034 ft 449 kts 30°
2026-05-09 18:38 71.77552 -8.64108 41020 ft 449 kts 31°
2026-05-09 18:38 71.82771 -8.53080 41020 ft 450 kts 31°
2026-05-09 18:40 72.03607 -8.08292 41002 ft 452 kts 32°
2026-05-09 18:41 72.08788 -7.96966 41001 ft 452 kts 32°
2026-05-09 18:41 72.14001 -7.85491 40998 ft 453 kts 32°
2026-05-09 18:42 72.19212 -7.73942 40991 ft 453 kts 32°
2026-05-09 18:42 72.24422 -7.62306 40989 ft 454 kts 32°
2026-05-09 18:43 72.29597 -7.50671 40986 ft 454 kts 33°
2026-05-09 18:43 72.34800 -7.38895 40989 ft 454 kts 33°
2026-05-09 18:44 72.40000 -7.27039 40986 ft 454 kts 33°
2026-05-09 18:44 72.45197 -7.15109 40987 ft 455 kts 33°
2026-05-09 18:45 72.50353 -7.03185 40988 ft 455 kts 33°
2026-05-09 18:45 72.55537 -6.91112 40986 ft 455 kts 33°
2026-05-09 18:46 72.60717 -6.78961 40986 ft 455 kts 34°
2026-05-09 18:46 72.65885 -6.66752 40989 ft 455 kts 34°
2026-05-09 18:47 72.71049 -6.54463 40992 ft 455 kts 34°
2026-05-09 18:47 72.76168 -6.42192 40995 ft 455 kts 34°
2026-05-09 18:48 72.81313 -6.29771 40998 ft 455 kts 34°
2026-05-09 18:48 72.86451 -6.17275 40996 ft 455 kts 34°
2026-05-09 18:49 72.91581 -6.04708 40999 ft 455 kts 34°
2026-05-09 18:49 72.96701 -5.92073 41004 ft 454 kts 35°
2026-05-09 18:50 73.01777 -5.79451 41005 ft 454 kts 35°
2026-05-09 18:50 73.06884 -5.66663 41005 ft 454 kts 35°
2026-05-09 18:51 73.11977 -5.53812 41009 ft 454 kts 35°
2026-05-09 18:51 73.17060 -5.40890 41008 ft 454 kts 35°
2026-05-09 18:52 73.22104 -5.27974 41010 ft 454 kts 35°
2026-05-09 18:52 73.27173 -5.14893 41014 ft 454 kts 36°
2026-05-09 18:53 73.32235 -5.01734 41017 ft 454 kts 36°
2026-05-09 18:53 73.37289 -4.88496 41019 ft 454 kts 36°
2026-05-09 18:54 73.42332 -4.75189 41021 ft 454 kts 36°
2026-05-09 18:54 73.47333 -4.61889 41022 ft 454 kts 36°
2026-05-09 18:55 73.52357 -4.48427 41026 ft 454 kts 36°
2026-05-09 18:55 73.57375 -4.34877 41028 ft 454 kts 36°
2026-05-09 18:56 73.62379 -4.21263 41029 ft 454 kts 36°
2026-05-09 18:56 73.67340 -4.07664 41034 ft 454 kts 36°
2026-05-09 18:57 73.72327 -3.93880 41035 ft 454 kts 37°
2026-05-09 18:57 73.77304 -3.80023 41040 ft 454 kts 37°
2026-05-09 18:58 73.82269 -3.66090 41041 ft 453 kts 37°
2026-05-09 18:58 73.87223 -3.52075 41046 ft 453 kts 37°
2026-05-09 18:59 73.92133 -3.38077 41044 ft 453 kts 37°
2026-05-09 18:59 73.97067 -3.23905 41048 ft 453 kts 37°
2026-05-09 19:00 74.01988 -3.09652 41052 ft 453 kts 37°
2026-05-09 19:00 74.09314 -2.88230 41061 ft 453 kts 37°
2026-05-09 19:01 74.14216 -2.73754 41055 ft 453 kts 37°
2026-05-09 19:01 74.19106 -2.59193 41061 ft 453 kts 37°
2026-05-09 19:02 74.23984 -2.44554 41062 ft 453 kts 38°
2026-05-09 19:02 74.28818 -2.29935 41064 ft 452 kts 38°
2026-05-09 19:03 74.33669 -2.15146 41066 ft 452 kts 38°
2026-05-09 19:03 74.38507 -2.00270 41077 ft 452 kts 38°
2026-05-09 19:04 74.43332 -1.85311 41090 ft 452 kts 38°
2026-05-09 19:04 74.48118 -1.70351 41088 ft 452 kts 38°
2026-05-09 19:05 74.52936 -1.55172 41086 ft 453 kts 39°
2026-05-09 19:05 74.57744 -1.39893 41092 ft 453 kts 39°
2026-05-09 19:06 74.62540 -1.24532 41099 ft 453 kts 39°
2026-05-09 19:06 74.67297 -1.09176 41098 ft 453 kts 39°
2026-05-09 19:07 74.72074 -0.93625 41110 ft 453 kts 39°
2026-05-09 19:07 74.76835 -0.77992 41113 ft 453 kts 39°
2026-05-09 19:08 74.81583 -0.62264 41119 ft 452 kts 40°
2026-05-09 19:08 74.86293 -0.46535 41123 ft 452 kts 40°
2026-05-09 19:09 74.91018 -0.30625 41128 ft 453 kts 40°
2026-05-09 19:09 74.95736 -0.14607 41135 ft 453 kts 40°
2026-05-09 19:10 75.00450 0.01523 41139 ft 453 kts 40°
2026-05-09 19:10 75.05258 0.17232 41141 ft 453 kts 38°
2026-05-09 19:11 75.10095 0.32637 41146 ft 453 kts 38°
2026-05-09 19:11 75.14949 0.48289 41153 ft 453 kts 39°
2026-05-09 19:12 75.19783 0.64113 41160 ft 453 kts 39°
2026-05-09 19:12 75.24600 0.80072 41164 ft 454 kts 39°
2026-05-09 19:13 75.29375 0.96035 41168 ft 454 kts 39°
2026-05-09 19:13 75.34171 1.12207 41176 ft 454 kts 40°
2026-05-09 19:14 75.38958 1.28484 41177 ft 454 kts 40°
2026-05-09 19:14 75.43734 1.44867 41185 ft 454 kts 40°
2026-05-09 19:15 75.48496 1.61350 41191 ft 454 kts 40°
2026-05-09 19:15 75.53216 1.77829 41188 ft 454 kts 40°
2026-05-09 19:16 75.57958 1.94535 41202 ft 454 kts 40°
2026-05-09 19:16 75.62689 2.11345 41201 ft 454 kts 41°
2026-05-09 19:17 75.67405 2.28259 41211 ft 454 kts 41°
2026-05-09 19:17 75.72109 2.45281 41215 ft 454 kts 41°
2026-05-09 19:18 75.76768 2.62294 41218 ft 454 kts 41°
2026-05-09 19:18 75.81446 2.79531 41222 ft 454 kts 41°
2026-05-09 19:19 75.86114 2.96888 41227 ft 453 kts 41°
2026-05-09 19:19 75.90763 3.14335 41235 ft 453 kts 42°
2026-05-09 19:20 75.95373 3.31788 41233 ft 453 kts 42°
2026-05-09 19:20 75.99999 3.49465 41240 ft 453 kts 42°
2026-05-09 19:21 76.04609 3.67248 41240 ft 453 kts 42°
2026-05-09 19:21 76.09206 3.85148 41241 ft 453 kts 43°
2026-05-09 19:22 76.13757 4.03031 41241 ft 453 kts 43°
2026-05-09 19:22 76.18327 4.21161 41248 ft 453 kts 43°
2026-05-09 19:23 76.22885 4.39409 41248 ft 453 kts 43°
2026-05-09 19:23 76.27430 4.57780 41254 ft 453 kts 43°
2026-05-09 19:24 76.31931 4.76144 41256 ft 453 kts 43°
2026-05-09 19:24 76.36447 4.94750 41258 ft 453 kts 44°
2026-05-09 19:25 76.40950 5.13483 41260 ft 453 kts 44°
2026-05-09 19:25 76.45442 5.32345 41261 ft 453 kts 44°
2026-05-09 19:26 76.54022 5.68890 41265 ft 454 kts 44°
2026-05-09 19:27 76.58443 5.87986 41271 ft 454 kts 44°
2026-05-09 19:27 76.62880 6.07343 41272 ft 454 kts 45°
2026-05-09 19:28 76.67303 6.26827 41277 ft 454 kts 45°
2026-05-09 19:28 76.72037 6.47901 41275 ft 454 kts 45°
2026-05-09 19:29 76.76398 6.67510 41278 ft 454 kts 45°
2026-05-09 19:29 76.80773 6.87383 41280 ft 454 kts 46°
2026-05-09 19:30 76.85132 7.07380 41282 ft 454 kts 46°
2026-05-09 19:30 76.89474 7.27503 41287 ft 454 kts 46°
2026-05-09 19:31 76.93773 7.47628 41287 ft 454 kts 46°
2026-05-09 19:31 76.98086 7.68024 41290 ft 454 kts 46°
2026-05-09 19:32 77.00253 7.78350 40762 ft 460 kts 46°
2026-05-09 19:32 77.02431 7.88782 40164 ft 459 kts 46°
2026-05-09 19:32 77.04602 7.99234 39496 ft 460 kts 47°
2026-05-09 19:32 77.06774 8.09748 38759 ft 462 kts 47°
2026-05-09 19:33 77.08948 8.20329 37918 ft 462 kts 47°
2026-05-09 19:33 77.11116 8.30932 37169 ft 461 kts 47°
2026-05-09 19:33 77.13243 8.41393 36428 ft 460 kts 47°
2026-05-09 19:33 77.15395 8.52028 35591 ft 461 kts 48°
2026-05-09 19:34 77.17546 8.62716 34949 ft 458 kts 48°
2026-05-09 19:34 77.19670 8.73327 34336 ft 454 kts 48°
2026-05-09 19:34 77.21770 8.83879 33649 ft 449 kts 48°
2026-05-09 19:34 77.23839 8.94324 33040 ft 443 kts 48°
2026-05-09 19:35 77.25878 9.04672 32461 ft 438 kts 48°
2026-05-09 19:35 77.27889 9.14927 31911 ft 432 kts 48°
2026-05-09 19:35 77.29843 9.24944 31376 ft 427 kts 48°
2026-05-09 19:35 77.31800 9.35027 30844 ft 423 kts 48°
2026-05-09 19:36 77.33734 9.45038 30311 ft 419 kts 48°
2026-05-09 19:36 77.35644 9.54978 29689 ft 414 kts 49°
2026-05-09 19:36 77.37527 9.64819 29134 ft 409 kts 49°
2026-05-09 19:36 77.39380 9.74552 28588 ft 403 kts 49°
2026-05-09 19:37 77.41206 9.84194 28069 ft 398 kts 49°
2026-05-09 19:37 77.42984 9.93623 27541 ft 394 kts 49°
2026-05-09 19:37 77.44764 10.03103 27024 ft 390 kts 49°
2026-05-09 19:37 77.46524 10.12522 26514 ft 386 kts 49°
2026-05-09 19:38 77.48264 10.21878 26012 ft 383 kts 49°
2026-05-09 19:38 77.49985 10.31175 25522 ft 380 kts 49°
2026-05-09 19:38 77.51690 10.40432 25033 ft 377 kts 49°
2026-05-09 19:38 77.53378 10.49632 24550 ft 374 kts 49°
2026-05-09 19:39 77.54491 10.55721 24226 ft 373 kts 50°
2026-05-09 19:39 77.56157 10.64871 23728 ft 371 kts 50°
2026-05-09 19:39 77.57811 10.73992 23172 ft 368 kts 50°
2026-05-09 19:39 77.59447 10.83061 22576 ft 366 kts 50°
2026-05-09 19:40 77.61617 10.95144 21767 ft 365 kts 50°
2026-05-09 19:40 77.63234 11.04198 21252 ft 361 kts 50°
2026-05-09 19:40 77.64828 11.13165 20764 ft 357 kts 50°
2026-05-09 19:40 77.65874 11.19069 20456 ft 355 kts 50°
2026-05-09 19:41 77.67434 11.27906 19995 ft 351 kts 50°
2026-05-09 19:41 77.68977 11.36682 19543 ft 347 kts 50°
2026-05-09 19:41 77.70499 11.45379 19088 ft 343 kts 50°
2026-05-09 19:41 77.72006 11.54024 18642 ft 340 kts 50°
2026-05-09 19:42 77.73972 11.65357 17982 ft 336 kts 50°
2026-05-09 19:42 77.74964 11.71103 17669 ft 333 kts 50°
2026-05-09 19:42 77.76412 11.79516 17228 ft 329 kts 50°
2026-05-09 19:42 77.77824 11.87752 16787 ft 325 kts 50°
2026-05-09 19:43 77.79236 11.96018 16359 ft 322 kts 50°
2026-05-09 19:43 77.80632 12.04230 15914 ft 319 kts 50°
2026-05-09 19:43 77.82011 12.12370 15480 ft 316 kts 51°
2026-05-09 19:43 77.83379 12.20474 15050 ft 313 kts 51°
2026-05-09 19:44 77.84731 12.28518 14628 ft 311 kts 51°
2026-05-09 19:44 77.86072 12.36527 14207 ft 309 kts 51°
2026-05-09 19:44 77.87400 12.44491 13742 ft 306 kts 51°
2026-05-09 19:44 77.88717 12.52420 13312 ft 303 kts 51°
2026-05-09 19:45 77.90015 12.60264 12878 ft 300 kts 51°
2026-05-09 19:45 77.91282 12.67946 12477 ft 297 kts 51°
2026-05-09 19:45 77.92550 12.75669 12060 ft 295 kts 51°
2026-05-09 19:45 77.93806 12.83343 11649 ft 292 kts 51°
2026-05-09 19:46 77.95051 12.90980 11241 ft 290 kts 51°
2026-05-09 19:46 77.96284 12.98569 10832 ft 288 kts 51°
2026-05-09 19:46 77.97508 13.06131 10429 ft 286 kts 51°
2026-05-09 19:46 77.98718 13.13637 10167 ft 279 kts 51°
2026-05-09 19:47 77.99881 13.20878 10027 ft 268 kts 51°
2026-05-09 19:47 78.00989 13.27791 9764 ft 263 kts 51°
2026-05-09 19:47 78.02100 13.34725 9462 ft 260 kts 51°
2026-05-09 19:47 78.03196 13.41610 9131 ft 258 kts 51°
2026-05-09 19:48 78.04280 13.48450 8811 ft 256 kts 52°
2026-05-09 19:48 78.05355 13.55256 8486 ft 254 kts 52°
2026-05-09 19:48 78.06562 13.61388 8149 ft 252 kts 33°
2026-05-09 19:48 78.08066 13.65550 7873 ft 248 kts 28°
2026-05-09 19:49 78.09583 13.69530 7543 ft 247 kts 28°
2026-05-09 19:49 78.11093 13.73509 7234 ft 246 kts 28°
2026-05-09 19:49 78.12573 13.77441 6929 ft 246 kts 28°
2026-05-09 19:49 78.14064 13.81434 6616 ft 245 kts 28°
2026-05-09 19:50 78.15553 13.85447 6286 ft 244 kts 28°
2026-05-09 19:50 78.17030 13.89444 5974 ft 242 kts 28°
2026-05-09 19:50 78.18493 13.93417 5675 ft 241 kts 28°
2026-05-09 19:50 78.19947 13.97385 5415 ft 237 kts 29°
2026-05-09 19:51 78.21356 14.01249 5318 ft 228 kts 29°
2026-05-09 19:51 78.22712 14.04976 5219 ft 219 kts 29°
2026-05-09 19:51 78.24014 14.08582 5112 ft 211 kts 31°
2026-05-09 19:51 78.25207 14.12399 5011 ft 204 kts 34°
2026-05-09 19:52 78.26352 14.16249 4920 ft 195 kts 34°
2026-05-09 19:52 78.27448 14.19941 4828 ft 187 kts 34°
2026-05-09 19:52 78.28538 14.23601 4728 ft 192 kts 33°
2026-05-09 19:52 78.29639 14.27298 4531 ft 189 kts 33°
2026-05-09 19:53 78.30541 14.31906 4281 ft 190 kts 69°
2026-05-09 19:53 78.30581 14.38299 4133 ft 190 kts 101°
2026-05-09 19:53 78.30371 14.44800 3891 ft 193 kts 99°
2026-05-09 19:53 78.30096 14.51259 3661 ft 191 kts 104°
2026-05-09 19:54 78.29761 14.57392 3453 ft 185 kts 106°
2026-05-09 19:54 78.29412 14.63374 3201 ft 179 kts 106°
2026-05-09 19:54 78.29072 14.69123 3036 ft 170 kts 106°
2026-05-09 19:54 78.28748 14.74608 2989 ft 162 kts 106°
2026-05-09 19:55 78.28444 14.79766 2840 ft 153 kts 106°
2026-05-09 19:55 78.28155 14.84699 2621 ft 148 kts 106°
2026-05-09 19:55 78.27876 14.89485 2423 ft 145 kts 106°
2026-05-09 19:56 78.27327 14.98931 2010 ft 143 kts 106°
2026-05-09 19:56 78.27057 15.03588 1809 ft 140 kts 106°
2026-05-09 19:56 78.26798 15.08073 1625 ft 132 kts 106°
2026-05-09 19:56 78.26562 15.12179 1398 ft 121 kts 106°
2026-05-09 19:57 78.26337 15.16106 1221 ft 120 kts 106°
2026-05-09 19:57 78.26112 15.20044 1033 ft 120 kts 106°
2026-05-09 19:57 78.25887 15.23957 841 ft 119 kts 107°
2026-05-09 19:57 78.25658 15.27837 705 ft 119 kts 107°
2026-05-09 19:58 78.25432 15.31724 546 ft 121 kts 106°
2026-05-09 19:58 78.25218 15.35733 350 ft 121 kts 105°
2026-05-09 19:58 78.24999 15.39695 184 ft 119 kts 106°
2026-05-09 19:58 78.24783 15.43550 83 ft 111 kts 105°
2026-05-09 19:59 78.24634 15.46215 85 ft 50 kts 105°
2026-05-09 19:59 78.24557 15.47602 82 ft 38 kts 105°
2026-05-09 19:59 78.24553 15.48139 86 ft 11 kts 41°
2026-05-09 19:59 78.24591 15.48442 87 ft 6 kts 53°
2026-05-09 20:00 78.24608 15.48636 90 ft 6 kts 56°
2026-05-09 20:00 78.24643 15.48742 89 ft 6 kts 10°
2026-05-09 20:00 78.24662 15.48887 91 ft 6 kts 104°
2026-05-09 20:00 78.24660 15.48919 87 ft 0 kts 104°
2026-05-09 20:01 78.24658 15.48954 87 ft 0 kts 105°